If you wish to contribute or participate in the discussions about articles you are invited to join SKYbrary as a registered user

 Actions

Tours-Val-de-Loire Airport

From SKYbrary Wiki

LFOT
Airport
ICAO: LFOT – IATA: TUF
Summary
Name Tours-Val-de-Loire Airport
Region Europe
Territory France FR.gif
Location , Centre
Serving Tours
Elevation 108.814 m
357 ft
357 ft108.814 m
Type large airport
Coordinates 47° 25' 56.00" N, 0° 43' 39.38" E
Runways
Designator Length Width Surface ROPS
2/20 2404 m7,887.139 ft
45 m147.638 ft
CON yes/yes


METAR
Observation LFOT 190400Z AUTO 04006KT 350V070 CAVOK 03/01 Q1034 NOSIG
Station Tours
Date/Time 19 January 2020 04:00:00
Wind direction 40°
Wind speed 06 kts
Lowest cloud amount clouds and visibility OK
Temperature 3°C
Dew point 1°C
Humidity 86%
QNH 1034 hPa
Weather condition n/a